Regional Weather Roundup
Issued by NWS Jackson, KY

Home | Current Version | Previous Version | Graphics & Text | Print | Product List | Glossary On
Versions: 1 2 3 4 5 6 7 8 9 10 11 12 13 14 15 16 17 18 19 20 21 22 23 24 25 26 27 28 29 30 31 32 33 34 35 36 37 38 39 40 41 42 43 44 45 46 47 48 49 50
494
ASUS43 KJKL 220110
RWRJKL

EAST KENTUCKY HOURLY WEATHER ROUNDUP
NATIONAL WEATHER SERVICE JACKSON KY
900 PM EDT MON MAY 21 2018

NOTE: "FAIR" INDICATES FEW OR NO CLOUDS BELOW 12,000 FEET WITH
NO SIGNIFICANT WEATHER AND/OR OBSTRUCTIONS TO VISIBILITY.

* THESE REPORTS ARE NOT UNDER NWS QUALITY CONTROL AND MAY NOT
  REPORT WEATHER SUCH AS PRECIPITATION AND FOG.

KYZ079-080-083-085-087-088-110-112-115-119-120-220200
...EASTERN KENTUCKY...

CITY           SKY/WX    TMP DP  RH WIND       PRES   REMARKS
JACKSON        CLOUDY    73  66  78 SE5       30.09S
LONDON           N/A     73  67  81 E3        30.08R
SOMERSET*      DRIZZLE   73  68  83 MISG      30.08R
MONTICELLO*      N/A     73  70  90 W9        30.08R
WILLIAMSBURG*    N/A     72  68  88 CALM      30.09R
MIDDLESBORO*     N/A     73  65  74 S3        30.11R
HARLAN APT*      N/A     67  66  97 CALM      30.13S
PIKE CO APT*   CLOUDY    68  68 100 SE5       30.12R
BIG SANDY APT* CLOUDY    69  69 100 CALM      30.11R
MOREHEAD APT*  MOCLDY    72  64  78 SE3       30.08F
ASHLAND*       RAIN      68  67  96 CALM      30.09F FOG
$$

KYZ035-036-041-042-044-050-067-078-099-220200
...CENTRAL KENTUCKY...

CITY           SKY/WX    TMP DP  RH WIND       PRES   REMARKS
MT STERLING*   CLOUDY    73  64  73 SE7       30.07F
FLEMING/MASON* DRIZZLE   72  68  88 S12       30.06F
DANVILLE*        N/A     72  64  78 CALM      30.07R
LEXINGTON        N/A     72  66  81 S6        30.05S
FRANKFORT        N/A     75  64  68 S7        30.03R
LOUISVILLE     CLOUDY    76  65  68 NW9       30.03R
LEBANON*         N/A     75  63  64 CALM      30.04R
GLASGOW*         N/A     73  66  79 CALM      30.05R
BOWLING GREEN    N/A     70  69  97 W5        30.04S
$$

KYZ091>093-OHZ055-061-077-WVZ005-015-034-035-042-220200
...SOUTHERN OHIO/WEST VIRGINIA...

CITY           SKY/WX    TMP DP  RH WIND       PRES   REMARKS
COVINGTON      TSTM      68  66  93 W24G32    30.06R FOG
COLUMBUS       CLOUDY    78  64  61 SE10      30.02S
DAYTON         TSTM      66  66 100 NW7       30.06F
WILMINGTON       N/A     75  66  73 SW6       30.02S
HUNTINGTON     LGT RAIN  68  65  90 E7        30.09F
CHARLESTON     LGT RAIN  69  67  93 CALM      30.11F
PINEVILLE*     CLOUDY    67  66  96 MISG      30.19S FOG
BECKLEY        CLOUDY    67  62  84 SE3       30.18R
BLUEFIELD      CLOUDY    66  60  81 S8        30.20S
LOGAN CO APT*  CLOUDY    68  66  94 CALM      30.13S
$$

VAZ002-007-008-TNZ017-027-036-066-071-220200
...SOUTHWEST VIRGINIA/EAST TENNESSEE...

CITY           SKY/WX    TMP DP  RH WIND       PRES   REMARKS
WISE*          CLOUDY    66  66 100 CALM      30.19S
JONESVILLE*      N/A     68  66  94 CALM      30.15R
ABINGDON*      MOCLDY    72  66  83 E7        30.16R
BRISTOL        MOCLDY    71  67  87 CALM      30.12S
MORRISTOWN*    CLEAR     73  66  78 CALM      30.11R
SEVIERVILLE*   CLOUDY    75  68  78 CALM      30.10R
KNOXVILLE      MOCLDY    79  66  64 CALM      30.08R
LAFOLLETTE*    CLEAR     72  61  68 CALM      30.12R
OAK RIDGE        N/A     79  65  62 CALM      30.09R
CROSSVILLE       N/A     72  59  63 CALM      30.13R
NASHVILLE      MOCLDY    79  64  60 S5        30.05R
$$

...KEY TO REMARKS...
VSB - VISIBILITY IN MILES
WCI - WIND CHILL INDEX
HX  - HEAT INDEX

$$




USA.gov is the U.S. government's official web portal to all federal, state and local government web resources and services.